Regional Weather Roundup
Issued by NWS

Home | Current Version | Previous Version | Graphics & Text | Print | Product List | Glossary On
Versions: 1 2 3 4 5 6 7 8 9 10 11 12 13 14 15 16 17 18 19 20 21 22 23 24 25 26 27 28 29 30 31 32 33 34 35 36 37 38 39 40 41 42 43 44 45 46 47 48 49 50
000
ASUS43 KLSX 271659
RWRMO

WEATHER SUMMARY FOR MISSOURI
NATIONAL WEATHER SERVICE SPRINGFIELD MO
1200 PM CDT MON JUL 27 2015

NOTE: "FAIR" INDICATES FEW OR NO CLOUDS BELOW 12,000 FEET WITH NO
       SIGNIFICANT WEATHER AND/OR OBSTRUCTIONS TO VISIBILITY.
       CURRENT SKY AND/OR WEATHER CONDITIONS ARE NOT AVAILABLE FOR
       CHILLICOTHE AND FARMINGTON.

MOZ001>031-035>038-043-044-053-054-271800-
...NORTHERN AND WESTERN MISSOURI...

CITY           SKY/WX    TMP DP  RH WIND       PRES   REMARKS
KANSAS CTY INT CLOUDY    87  77  72 S9        29.93R HX  99
KANSAS C DTWN  MOSUNNY   90  74  59 S10       29.91R HX  99
LEE`S SUMMIT   MOSUNNY   89  74  60 S9        29.94S HX  98
ST JOSEPH      PTSUNNY   87  78  74 S9        29.91R HX 100
CHILLICOTHE      N/A     91  80  70 S7        29.93R HX 109
KIRKSVILLE     PTSUNNY   86  78  77 SE10      29.95F HX  98

$$
MOZ066>068-077>081-088>096-101>105-271800-
...SOUTHWEST MISSOURI...

CITY           SKY/WX    TMP DP  RH WIND       PRES   REMARKS
SPRINGFIELD    SUNNY     90  73  57 SW5       29.98F HX  98
JOPLIN         SUNNY     93  73  52 SW10      29.96F HX 102

$$
MOZ032>034-039>042-045>050-055>058-069>072-271800-
...CENTRAL MISSOURI...

CITY           SKY/WX    TMP DP  RH WIND       PRES   REMARKS
COLUMBIA       PTSUNNY   90  75  61 VRB3      29.95F HX 100
JEFFERSON CITY PTSUNNY   90  75  61 S5        29.93F HX 100
ROLLA          MOSUNNY   90  75  61 CALM      29.97F HX 100
SEDALIA        MOSUNNY   91  77  63 S8        29.96F HX 104
OSAGE BEACH    MOSUNNY   90  73  58 SW6       29.96F HX  98

$$
MOZ051-052-059>065-271800-
...EAST CENTRAL MISSOURI...

CITY           SKY/WX    TMP DP  RH WIND       PRES   REMARKS
ST LOUIS INTL  MOSUNNY   91  77  63 N3        29.95F HX 104
SPIRIT OF STL  MOSUNNY   90  80  72 CALM      29.93F HX 107
ST CHARLES     CLOUDY    86  80  82 NE7       29.94F HX 101

$$
MOZ072>076-082>087-097>100-106>115-271800-
...SOUTH CENTRAL AND SOUTHEAST MISSOURI...

CITY           SKY/WX    TMP DP  RH WIND       PRES   REMARKS
CAPE GIRARDEAU MOSUNNY   89  79  72 VRB3      29.95F HX 104
FARMINGTON     SUNNY     91  70  49 CALM      30.01F HX  97
POPLAR BLUFF   SUNNY     90  79  70 S7        29.95F HX 106
WEST PLAINS    SUNNY     90  75  61 CALM      30.01F HX 100

$$



USA.gov is the U.S. government's official web portal to all federal, state and local government web resources and services.